Regional Weather Roundup
Issued by NWS

Home | Current Version | Previous Version | Text Only | Print | Product List | Glossary On
Versions: 1 2 3 4 5 6 7 8 9 10 11 12 13 14 15 16 17 18 19 20 21 22 23 24 25 26 27 28 29 30 31 32 33 34 35 36 37 38 39 40 41 42 43 44 45 46 47 48 49 50
000
ASUS43 KLOT 022321
RWRIL

ILLINOIS REGIONAL WEATHER ROUNDUP
NATIONAL WEATHER SERVICE CHICAGO/ROMEOVILLE IL
600 PM CDT THU JUL 02 2015

NOTE: "FAIR" INDICATES FEW OR NO CLOUDS BELOW 12,000 FEET WITH NO
SIGNIFICANT WEATHER AND/OR OBSTRUCTIONS TO VISIBILITY.

* THESE STATIONS ARE NOT UNDER NWS QUALITY CONTROL. THEY ALSO MAY NOT
  REPORT WEATHER SUCH AS PRECIPITATION OR FOG.

ILZ001-002-007-009-015-016-024-030000-
NORTHWEST ILLINOIS

CITY           SKY/WX    TMP DP  RH WIND       PRES   REMARKS
MOLINE         CLOUDY    70  57  63 E8        29.96F
STERLING*      PTSUNNY   70  57  64 NE8       29.96F
SAVANNA*       PTSUNNY   72  52  49 NE7       29.97F
$$

ILZ003-004-008-010-011-017-018-030000-
NORTH CENTRAL ILLINOIS

CITY           SKY/WX    TMP DP  RH WIND       PRES   REMARKS
ROCKFORD       CLOUDY    72  51  47 NE9       29.98F
FREEPORT*      MOSUNNY   68  52  55 NE9       29.99F
ROCHELLE*      MOSUNNY   70  55  60 NE10      29.98S
DE KALB*       MOSUNNY   67  53  60 E10       29.98F
PERU*          CLOUDY    71  56  58 NE9       29.96F
$$

ILZ005-006-012>014-019>023-030000-
NORTHEAST ILLINOIS

CITY           SKY/WX    TMP DP  RH WIND       PRES   REMARKS
CHICAGO-OHARE  MOSUNNY   65  52  62 NE13      29.98F
CHICAGO-MIDWAY MOSUNNY   69  55  60 N12       29.97F
AURORA         SUNNY     70  53  54 NE9       29.97S
LANSING*       MOSUNNY   65  54  69 N9        29.96F
JOLIET*        SUNNY     70  57  63 NE12      29.96S
WAUKEGAN       SUNNY     61  51  70 N12       30.00F
DUPAGE AIRPORT SUNNY     68  54  60 NE9       29.97S
KANKAKEE*      MOSUNNY   70  60  71 N12       29.94F
WHEELING       SUNNY     64  52  64 NE9       30.00F
MORRIS*        MOSUNNY   71  57  61 NE6       29.94S
ROMEOVILLE*    SUNNY     69  54  59 NE10      29.96F
NORTHERLY ISL    N/A     60  54  80 N14         N/A
$$

LMZ740>746-030000-
SOUTHERN LAKE MICHIGAN

STATION/POSITION SKY/WX   TEMP    WIND        PRES    VSBY  WAVE
                          AIR SEA DIR/SP/G                  HT/PER
                          (F)     (DEG/KT/KT) (MB)    (MI)  (FT/S)
HARRISON CRIB              57     350/ 17/ 19   N/A
BURNHAM HARBOR             61     360/ 13/ 16   N/A
CALUMET HARBOR             60     340/ 13/ 17   N/A
BURNS HARBOR               61      10/ 10/ 14 1015.6S
MICHIGAN CITY              62      20/ 18/ 20   N/A
MICHIGAN CITY 6N           63 64   40/ 16/ 21   N/A           5/ 4
ST. JOSEPH                 61 63                N/A           3/ 4
$$

ILZ025>027-034>036-040-047-049-050-058-095>099-030000-
WEST-CENTRAL ILLINOIS

CITY           SKY/WX    TMP DP  RH WIND       PRES   REMARKS
QUINCY         CLOUDY    71  60  68 NE9       29.94S
GALESBURG*     CLOUDY    69  57  66 NE6       29.95F
MACOMB*        CLOUDY    68  59  73 NE5       29.97S
JACKSONVILLE*  CLOUDY    72  62  71 N6        29.92F
PITTSFIELD*    CLOUDY    70  60  71 NE8       29.93F
$$

ILZ028>032-037-038-041>044-048-051>054-059>061-030000-
CENTRAL ILLINOIS

CITY           SKY/WX    TMP DP  RH WIND       PRES   REMARKS
PONTIAC        PTSUNNY   73  60  64 NE9       29.94F
BLOOMINGTON    PTSUNNY   76  59  55 NE8       29.94S
DECATUR        CLOUDY    73  61  65 NE7       29.90S
PEORIA         PTSUNNY   74  58  57 NE7       29.93F
LACON*         CLOUDY    71  57  62 NE5       29.93F
LINCOLN*       CLOUDY    74  60  59 NE5       29.91F
SPRINGFIELD    CLOUDY    75  60  59 NE7       29.91F
TAYLORVILLE    CLOUDY    70  61  73 N6        29.90F
$$

ILZ033-039-045-046-055>057-062-063-030000-
EAST-CENTRAL ILLINOIS

CITY           SKY/WX    TMP DP  RH WIND       PRES   REMARKS
CHAMPAIGN      PTSUNNY   75  61  61 NE9       29.90F
DANVILLE*      PTSUNNY   74  62  65 NE10      29.87S
RANTOUL*       PTSUNNY   78  61  55 NE9       29.90F
MATTOON        PTSUNNY   74  65  73 N6        29.88S
PARIS*         CLOUDY    77  67  69 NE6       29.88F
$$

ILZ079-100>102-030000-
SOUTHWEST ILLINOIS

CITY           SKY/WX    TMP DP  RH WIND       PRES   REMARKS
BELLEVILLE     PTSUNNY   76  69  78 N7        29.86S
CAHOKIA*       CLOUDY    77  65  66 N10       29.87S
SPARTA*        PTSUNNY   76  68  77 NE8       29.87F
$$

ILZ064>066-069>071-074>076-080>082-084>086-088>090-092>094-030000-
SOUTH-CENTRAL ILLINOIS

CITY           SKY/WX    TMP DP  RH WIND       PRES   REMARKS
CARBONDALE     CLOUDY    75  68  78 N8        29.86R
CAIRO*         MOSUNNY   82  71  71 NW6       29.82S HX  86
EFFINGHAM*     PTSUNNY   75  64  66 NW6       29.89S
MARION         CLOUDY    73  70  88 N6        29.86R
MT. VERNON     CLOUDY    73  66  78 NE3       29.87R
CENTRALIA*     CLOUDY    75  66  72 N5        29.87S
SALEM*         PTSUNNY   78  67  70 N6        29.86F
METROPOLIS*    CLOUDY    82  74  76 NW3       29.83S HX  89
$$

ILZ067-068-072-073-078-083-087-091-030000-
SOUTHEAST ILLINOIS

CITY           SKY/WX    TMP DP  RH WIND       PRES   REMARKS
LAWRENCEVILLE  PTSUNNY   77  68  73 N10       29.85F
FLORA*         PTSUNNY   77  67  71 NE8       29.86F
FAIRFIELD*     RAIN      74  69  83 NE7       29.84F
HARRISBURG*    PTSUNNY   76  72  87 N7        29.85S
ROBINSON*      PTSUNNY   77  67  71 NE7       29.86F
CARMI*         CLOUDY    76  66  70 NE6       29.84F
$$

ABBREVIATIONS USED IN REMARKS
   TC - TEMPERATURE IN CELSIUS
  WCI - WIND CHILL INDEX
   HX - HEAT INDEX
  VSB - VISIBILITY
$$



USA.gov is the U.S. government's official web portal to all federal, state and local government web resources and services.